COSMOS 2461 (735)

Last updated on Sat Nov 19 2022 00:03:17 GMT+0000 (Coordinated Universal Time)

1 36401U 10007B 22322.39573230 -.00000041 00000+0 00000+0 0 9999 2 36401 65.9531 358.3793 0018631 1.0389 136.4093 2.13103590 98976
UTC large
Height (km)
Speed (km/s)
/
Latitude / Longitude
Inclination (degrees)
Orbital Period (minutes)
Azimuth
Elevation
Range (km)
Doppler Factor

Next 0 passes for location: London (51.5072 / 0.1276)

Sorry there are no passes over London.
COSMOS 2461 (735)